Portada
METAR-TAF:

METAR-TAF

Aeroports :

NWS Office

Majuro, Illes Marshall

latitud: 07-05N, longitud: 171-12E, altitud: 4 m

Observació

L'informe es va fer fa 53 minuts, a les 10:52 UTC
Vent 15 kt del Est/Sud-Est
Temperatura 27°C
Humitat 84%
Pressió 1010 hPa
Visibilitat: 9.7 km
Núvols disperses a una alçada de 1400 ft, Cumulus congestus.
Cel ennuvolat a una alçada de 4500 ft
Cel cobert a una alçada de 11000 ft
xàfecs de pluja

METAR: PKMR 231052Z 12015KT 6SM -SHRA SCT014TCU BKN045 OVC110 27/24 A2983 RMK SHRAB48 TCU ALQDS SLP103 T02720241

Hora: 23:45 (11:45 UTC)


TAF: manca

Observacions i pronòstics meteorològics de més de 4000 aeroports (METAR i TAF).

Les estacions disponibles són els punts grocs i vermells al mapa.

Posi el ratolí al punt desitjat per veure el nom de l'estació.

Feu clic per veure les observacions i els pronòstics meteorològics.

Per canviar el mapa: feu clic els botons verds amb una creu de color negre per apropar; al botó verd amb un guió per allunyar la imatge; o en les fletxes verdes per a mapes adjacents.


METAR-TAF: